Location: The Jewett Observatory
(46.7288°N, 117.1525°W)
Time: 11:39:28
(UTC-08:00)

Amateur Radio Satellites - All Passes

Search period start: 01 February 2015 11:09
Search period end: 02 February 2015 11:09
Location: The Jewett Observatory, 46.7288°N, 117.1525°W

Satellite Date Start Highest point End Downlink Frequencies (MHz)
Time Altitude Azimuth
DELFI C3 01 Feb 11:10:18 11:12:38 15° 297° (WNW) 11:14:52 145.870
VELOX 1 01 Feb 11:10:18 11:14:43 54° 288° (WNW) 11:19:05 145.980
HUMSAT D 01 Feb 11:11:27 11:15:25 38° 290° (WNW) 11:19:17 437.325/437.525
UKube-1 01 Feb 11:14:36 11:18:01 22° 296° (WNW) 11:21:20 .
NANOSAT C BR1 01 Feb 11:15:26 11:17:59 15° 272° (W) 11:20:23 145.865
GONETS M04 01 Feb 11:29:11 11:37:51 65° 76° (ENE) 11:46:29
ITAMSAT 1 01 Feb 11:31:17 11:33:48 14° 56° (NE) 11:36:32 435.822/435.867
BUGSAT 1 01 Feb 11:34:03 11:35:40 12° 273° (W) 11:37:05 437.445
SO-50 01 Feb 11:36:27 11:39:52 19° 330° (NNW) 11:43:17 436.795
ZACube-1 01 Feb 11:37:15 11:39:51 15° 299° (WNW) 11:42:17 437.345
DX 1 01 Feb 11:40:42 11:42:53 13° 301° (WNW) 11:44:55 434.975-435.025
HO-68 01 Feb 11:46:39 11:49:16 12° 317° (NW) 11:51:33 435.675
CUBEBUG 2 01 Feb 11:47:03 11:47:41 10° 304° (WNW) 11:48:05 437.445
AIST 2 01 Feb 11:48:35 11:51:09 15° 249° (WSW) 11:53:33 435.215
FUNcube-1 01 Feb 11:48:36 11:50:29 12° 301° (WNW) 11:52:11 145.935
50 SAT 01 Feb 11:51:09 11:54:10 20° 295° (WNW) 11:57:04 437.505
PHONESAT 2.4 01 Feb 12:13:53 12:15:56 14° 204° (SSW) 12:17:56 2401.200-2431.200
AIST 1 01 Feb 12:14:55 12:17:16 14° 296° (WNW) 12:19:27
SPROUT 01 Feb 12:15:09 12:19:33 86° 103° (ESE) 12:23:53 437.525
AISAT 01 Feb 12:22:12 12:24:23 13° 301° (WNW) 12:26:23 437.250
ESTCUBE 1 01 Feb 12:35:33 12:38:48 19° 297° (WNW) 12:41:55 437.505/2401.250
DANDE 01 Feb 12:38:36 12:41:20 13° 46° (NE) 12:44:05 436.750
TISAT 1 01 Feb 12:40:03 12:44:17 55° 288° (WNW) 12:48:27 437.305
Oscar 19 01 Feb 12:43:25 12:48:35 63° 259° (WSW) 12:53:45 437.125/150
PCSat 01 Feb 12:45:07 12:50:25 54° 243° (WSW) 12:55:41 145.827
CUBEBUG 1 01 Feb 12:45:24 12:48:13 16° 299° (WNW) 12:50:53 437.445
Gurwin Techsat 1B 01 Feb 12:46:23 12:51:16 40° 67° (ENE) 12:56:14 435.225
RS-15 01 Feb 12:46:50 12:58:13 87° 54° (NE) 13:10:07 29.354- 29.394
CUSAT 1 01 Feb 12:48:12 12:51:38 16° 51° (NE) 12:54:49 437.405
SWISSCUBE 01 Feb 13:07:12 13:11:51 49° 99° (E) 13:16:30 437.505
ITAMSAT 1 01 Feb 13:07:24 13:12:35 83° 74° (ENE) 13:17:50 435.822/435.867
AO-7 01 Feb 13:15:43 13:22:33 30° 52° (NE) 13:29:33 29.400- 29.500
BEESAT 01 Feb 13:22:13 13:26:59 63° 101° (ESE) 13:31:44 436.000
GONETS M04 01 Feb 13:26:49 13:34:10 31° 277° (W) 13:41:18
ITUPSAT 1 01 Feb 13:28:24 13:33:13 70° 103° (ESE) 13:38:00 437.325
HORYU 2 01 Feb 13:37:15 13:41:19 35° 68° (ENE) 13:45:26 437.375
SPROUT 01 Feb 13:53:12 13:55:03 12° 301° (WNW) 13:56:44 437.525
STARS 01 Feb 14:06:57 14:10:39 26° 94° (E) 14:14:24 437.465
DANDE 01 Feb 14:20:11 14:26:47 67° 74° (ENE) 14:31:38 436.750
KKS-1 01 Feb 14:21:08 14:25:32 52° 100° (E) 14:29:55 437.445
Gurwin Techsat 1B 01 Feb 14:26:37 14:31:22 32° 266° (W) 14:36:04 435.225
CUSAT 1 01 Feb 14:29:58 14:36:07 87° 258° (WSW) 14:40:36 437.405
SWISSCUBE 01 Feb 14:45:41 14:49:28 23° 297° (WNW) 14:53:09 437.505
ITAMSAT 1 01 Feb 14:50:02 14:52:53 14° 274° (W) 14:55:29 435.822/435.867
RS-15 01 Feb 15:00:11 15:09:34 30° 254° (WSW) 15:18:50 29.354- 29.394
BEESAT 01 Feb 15:01:05 15:04:26 19° 299° (WNW) 15:07:39 436.000
O/OREOS (USA 219) 01 Feb 15:02:27 15:06:43 45° 109° (ESE) 15:11:05 437.305
SO-50 01 Feb 15:03:00 15:05:05 13° 19° (NNE) 15:07:16 436.795
AO-7 01 Feb 15:06:17 15:14:41 78° 253° (WSW) 15:23:07 29.400- 29.500
ITUPSAT 1 01 Feb 15:07:30 15:10:39 17° 300° (WNW) 15:13:38 437.325
HORYU 2 01 Feb 15:14:13 15:18:05 27° 266° (W) 15:21:54 437.375
M-CUBED/EXP-1 PRIME 01 Feb 15:14:46 15:17:51 34° 104° (ESE) 15:21:03 437.505
JAS-2 01 Feb 15:18:27 15:23:41 60° 72° (ENE) 15:28:48 435.910
Cubesat XI-IV 01 Feb 15:41:26 15:44:50 18° 58° (ENE) 15:48:24 437.490
STARS 01 Feb 15:43:09 15:47:15 36° 292° (WNW) 15:51:17 437.465
AUBIESAT-1 01 Feb 15:44:38 15:47:59 75° 108° (ESE) 15:51:27 437.475
KKS-1 01 Feb 15:58:35 16:01:52 20° 297° (WNW) 16:05:01 437.445
CUTE-I 01 Feb 15:59:23 16:03:32 24° 62° (ENE) 16:07:48 437.470
DANDE 01 Feb 16:05:00 16:09:13 19° 281° (W) 16:12:35 436.750
CUSAT 1 01 Feb 16:15:52 16:17:40 11° 285° (WNW) 16:19:03 437.405
MOZHAYETS 4 01 Feb 16:26:46 16:31:12 49° 98° (E) 16:35:39
SO-50 01 Feb 16:42:32 16:47:04 36° 42° (NE) 16:51:39 436.795
O/OREOS (USA 219) 01 Feb 16:42:40 16:46:24 24° 309° (NW) 16:50:06 437.305
M-CUBED/EXP-1 PRIME 01 Feb 16:50:26 16:52:42 17° 300° (WNW) 16:54:57 437.505
PRISM 01 Feb 16:59:59 17:00:29 10° 86° (E) 17:01:14 437.425
AO-7 01 Feb 17:03:36 17:09:02 17° 275° (W) 17:14:00 29.400- 29.500
JAS-2 01 Feb 17:05:39 17:09:23 18° 271° (W) 17:12:52 435.910
Cubesat XI-IV 01 Feb 17:19:02 17:24:22 79° 256° (WSW) 17:29:46 437.490
CUTE-I 01 Feb 17:38:04 17:43:18 56° 260° (W) 17:48:35 437.470
GOMX 1 01 Feb 17:59:20 18:01:00 12° 54° (NE) 18:02:57 467.674
MOZHAYETS 4 01 Feb 18:04:42 18:08:10 21° 296° (WNW) 18:11:33
BRITE-PL 01 Feb 18:20:44 18:24:48 23° 61° (ENE) 18:29:10 437.365/2234.400
SO-50 01 Feb 18:23:05 18:27:44 42° 241° (WSW) 18:32:21 436.795
CUBESAT XI-V 01 Feb 18:29:55 18:34:39 71° 102° (ESE) 18:39:21 437.345
YUBILEINY 01 Feb 18:30:27 18:38:42 52° 90° (E) 18:47:05 435.215
STRAND 1 01 Feb 18:31:20 18:36:21 49° 99° (E) 18:41:22 437.568
PRISM 01 Feb 18:32:29 18:36:39 81° 286° (WNW) 18:40:50 437.425
SEEDS 01 Feb 18:34:29 18:36:41 14° 62° (ENE) 18:39:03 437.485
HO-68 01 Feb 18:40:14 18:46:44 41° 62° (ENE) 18:53:19 435.675
CINEMA 3 01 Feb 18:48:26 18:50:32 13° 57° (ENE) 18:52:51 145.822/145.860
COMPASS 1 01 Feb 18:54:36 18:57:29 19° 64° (ENE) 19:00:29 437.405
Cubesat XI-IV 01 Feb 19:03:44 19:05:30 11° 276° (W) 19:06:56 437.490
AAUSAT CUBESAT 2 01 Feb 19:17:10 19:20:40 27° 67° (ENE) 19:24:14 437.432
CANX-2 01 Feb 19:19:16 19:23:23 47° 72° (ENE) 19:27:31 2200.000
ZACube-1 01 Feb 19:25:39 19:26:51 11° 58° (ENE) 19:28:16 437.345
DOVE 4 01 Feb 19:27:07 19:31:59 43° 69° (ENE) 19:37:02 437.250
DX 1 01 Feb 19:27:44 19:29:43 13° 59° (ENE) 19:31:53 434.975-435.025
GOMX 1 01 Feb 19:32:57 19:38:07 64° 73° (ENE) 19:43:34 467.674
CUBEBUG 2 01 Feb 19:33:02 19:36:14 19° 62° (ENE) 19:39:34 437.445
FUNcube-1 01 Feb 19:35:11 19:37:21 14° 60° (ENE) 19:39:40 145.935
ISS 01 Feb 19:38:56 19:40:55 15° 136° (SE) 19:43:00 145.825
CUTE 1.7 + AOD 2 01 Feb 19:42:39 19:46:56 76° 76° (ENE) 19:51:13 437.475
BRITE-PL 01 Feb 19:57:39 20:02:51 61° 261° (W) 20:08:25 437.365/2234.400
Oscar 11 01 Feb 19:58:18 20:02:17 37° 70° (ENE) 20:06:19 145.826/435.025
UWE-3 01 Feb 20:03:47 20:07:47 29° 67° (ENE) 20:11:50 435.000/436.395/437.385
SEEDS 01 Feb 20:07:49 20:12:04 68° 258° (WSW) 20:16:18 437.485
CUBESAT XI-V 01 Feb 20:08:40 20:11:37 16° 299° (WNW) 20:14:24 437.345
AISAT 01 Feb 20:10:31 20:12:54 15° 60° (ENE) 20:15:28 437.250
STRAND 1 01 Feb 20:11:06 20:15:19 26° 297° (WNW) 20:19:27 437.568
CINEMA 3 01 Feb 20:21:59 20:26:59 78° 75° (ENE) 20:32:04 145.822/145.860
DELFI C3 01 Feb 20:24:40 20:28:38 54° 73° (ENE) 20:32:38 145.870
HO-68 01 Feb 20:27:33 20:34:25 47° 261° (W) 20:41:16 435.675
YUBILEINY 01 Feb 20:27:45 20:35:51 40° 292° (WNW) 20:43:54 435.215
COMPASS 1 01 Feb 20:28:50 20:32:56 48° 261° (W) 20:37:02 437.405
HUMSAT D 01 Feb 20:31:04 20:34:34 24° 66° (ENE) 20:38:06 437.325/437.525
CUBEBUG 1 01 Feb 20:34:51 20:35:27 10° 57° (ENE) 20:36:15 437.445
VELOX 1 01 Feb 20:35:22 20:38:51 23° 64° (ENE) 20:42:26 145.980
UKube-1 01 Feb 20:35:35 20:39:48 54° 71° (ENE) 20:44:05 .
AIST 1 01 Feb 20:39:33 20:42:57 22° 69° (ENE) 20:46:25
AAUSAT CUBESAT 2 01 Feb 20:52:30 20:56:17 31° 265° (W) 21:00:02 437.432
CANX-2 01 Feb 20:56:35 20:59:39 18° 270° (W) 21:02:34 2200.000
ZACube-1 01 Feb 20:57:54 21:02:31 77° 76° (ENE) 21:07:09 437.345
DX 1 01 Feb 21:01:04 21:05:25 81° 256° (WSW) 21:09:50 434.975-435.025
DOVE 4 01 Feb 21:05:24 21:09:54 29° 268° (W) 21:14:30 437.250
50 SAT 01 Feb 21:05:28 21:09:18 38° 70° (ENE) 21:13:10 437.505
CUBEBUG 2 01 Feb 21:07:46 21:12:31 64° 259° (W) 21:17:18 437.445
FUNcube-1 01 Feb 21:08:29 21:13:07 86° 258° (WSW) 21:17:45 145.935
GOMX 1 01 Feb 21:12:52 21:16:47 20° 273° (W) 21:20:40 467.674
ISS 01 Feb 21:13:44 21:17:01 88° 149° (SSE) 21:20:20 145.825
UNISAT 6 01 Feb 21:17:12 21:18:57 12° 86° (E) 21:20:55 437.425
CUTE 1.7 + AOD 2 01 Feb 21:21:56 21:23:30 11° 274° (W) 21:24:50 437.475
Oscar 11 01 Feb 21:35:03 21:38:37 24° 267° (W) 21:42:07 145.826/435.025
QB50P2 01 Feb 21:38:27 21:40:10 12° 87° (E) 21:42:05 145.880/145.840
SPROUT 01 Feb 21:39:11 21:40:49 12° 59° (ENE) 21:42:38 437.525
UWE-3 01 Feb 21:39:52 21:44:13 37° 264° (W) 21:48:35 435.000/436.395/437.385
AISAT 01 Feb 21:44:33 21:49:01 75° 257° (WSW) 21:53:32 437.250
QB50P1 01 Feb 21:45:48 21:48:10 15° 88° (E) 21:50:41 145.935-145.965
ANTELSAT 01 Feb 21:52:00 21:55:48 28° 94° (E) 21:59:34 437.575/2403.000
TIGRISAT 01 Feb 21:57:15 22:01:10 30° 94° (E) 22:05:03 435.000
ESTCUBE 1 01 Feb 22:00:14 22:04:42 72° 74° (ENE) 22:09:12 437.505/2401.250
TISAT 1 01 Feb 22:00:53 22:03:49 19° 63° (ENE) 22:06:53 437.305
DELFI C3 01 Feb 22:01:54 22:04:17 15° 271° (W) 22:06:30 145.870
CINEMA 3 01 Feb 22:01:57 22:04:52 15° 274° (W) 22:07:35 145.822/145.860
POLYITAN 1 01 Feb 22:02:37 22:05:58 22° 92° (E) 22:09:22 437.675
HUMSAT D 01 Feb 22:06:07 22:10:12 38° 263° (W) 22:14:16 437.325/437.525
CUBEBUG 1 01 Feb 22:06:46 22:11:07 78° 76° (ENE) 22:15:33 437.445
VELOX 1 01 Feb 22:11:01 22:15:14 41° 262° (W) 22:19:30 145.980
UKube-1 01 Feb 22:13:29 22:16:21 17° 270° (W) 22:19:06 .
AIST 1 01 Feb 22:16:44 22:20:48 38° 268° (W) 22:24:51
POPSAT HIP 1 01 Feb 22:20:04 22:23:57 32° 96° (E) 22:27:50 437.405
DUCHIFAT 1 01 Feb 22:20:17 22:24:09 32° 96° (E) 22:28:01 145.980
ZACube-1 01 Feb 22:37:15 22:39:32 13° 274° (W) 22:41:35 437.345
50 SAT 01 Feb 22:41:23 22:44:35 21° 268° (W) 22:47:43 437.505
SWISSCUBE 01 Feb 22:42:42 22:44:12 12° 56° (ENE) 22:45:56 437.505
GONETS M04 01 Feb 22:42:53 22:46:36 14° 74° (ENE) 22:50:55
FUNcube-1 01 Feb 22:49:33 22:50:16 10° 276° (W) 22:50:42 145.935
ISS 01 Feb 22:50:41 22:53:45 35° 352° (N) 22:56:50 145.825
UNISAT 6 01 Feb 22:51:58 22:56:26 73° 285° (WNW) 23:00:45 437.425
NANOSAT C BR1 01 Feb 22:55:35 22:59:55 76° 103° (ESE) 23:04:12 145.865
BEESAT 01 Feb 22:56:36 22:59:04 15° 59° (ENE) 23:01:42 436.000
ITUPSAT 1 01 Feb 23:02:42 23:05:30 16° 60° (ENE) 23:08:28 437.325
BUGSAT 1 01 Feb 23:10:26 23:14:45 85° 103° (ESE) 23:19:03 437.445
SPROUT 01 Feb 23:11:59 23:16:20 87° 261° (W) 23:20:42 437.525
QB50P2 01 Feb 23:12:21 23:16:40 72° 286° (WNW) 23:20:56 145.880/145.840
QB50P1 01 Feb 23:20:16 23:24:32 60° 287° (WNW) 23:28:46 145.935-145.965
ANTELSAT 01 Feb 23:28:41 23:32:39 32° 293° (WNW) 23:36:30 437.575/2403.000
O/OREOS (USA 219) 01 Feb 23:30:42 23:34:08 21° 49° (NE) 23:37:40 437.305
TIGRISAT 01 Feb 23:34:03 23:37:56 29° 293° (WNW) 23:41:41 435.000
TISAT 1 01 Feb 23:35:12 23:39:20 50° 261° (W) 23:43:32 437.305
POLYITAN 1 01 Feb 23:38:02 23:42:06 39° 290° (WNW) 23:46:06 437.675
ESTCUBE 1 01 Feb 23:39:57 23:42:12 13° 273° (W) 23:44:15 437.505/2401.250
CUBEBUG 1 01 Feb 23:46:29 23:48:11 12° 274° (W) 23:49:39 437.445
BEESAT 2 01 Feb 23:55:50 23:56:22 10° 109° (ESE) 23:57:08 435.950
POPSAT HIP 1 01 Feb 23:56:05 23:59:48 27° 293° (WNW) 00:03:25 437.405
DUCHIFAT 1 01 Feb 23:56:15 23:59:57 28° 293° (WNW) 00:03:34 145.980
BEESAT 3 02 Feb 00:03:52 00:06:06 15° 112° (ESE) 00:08:31 437.485
SWISSCUBE 02 Feb 00:16:36 00:21:21 77° 74° (ENE) 00:26:08 437.505
ISS 02 Feb 00:27:32 00:30:42 40° 13° (NNE) 00:33:51 145.825
BEESAT 02 Feb 00:31:34 00:36:20 84° 257° (WSW) 00:41:08 436.000
NANOSAT C BR1 02 Feb 00:33:04 00:35:16 14° 300° (WNW) 00:37:18 145.865
GONETS M04 02 Feb 00:33:19 00:41:56 68° 94° (E) 00:50:35
ITUPSAT 1 02 Feb 00:38:08 00:42:54 75° 258° (WSW) 00:47:41 437.325
BUGSAT 1 02 Feb 00:47:51 00:49:41 12° 300° (WNW) 00:51:21 437.445
Oscar 19 02 Feb 00:52:15 00:57:00 37° 96° (E) 01:01:45 437.125/150
Gurwin Techsat 1B 02 Feb 01:01:35 01:03:25 12° 84° (E) 01:05:34 435.225
AUBIESAT-1 02 Feb 01:03:01 01:05:21 16° 60° (ENE) 01:07:41 437.475
STARS 02 Feb 01:06:44 01:10:43 33° 68° (ENE) 01:14:45 437.465
O/OREOS (USA 219) 02 Feb 01:09:26 01:13:59 58° 249° (WSW) 01:18:28 437.305
ITAMSAT 1 02 Feb 01:17:59 01:22:07 24° 92° (E) 01:26:21 435.822/435.867
KKS-1 02 Feb 01:21:58 01:26:26 68° 73° (ENE) 01:30:57 437.445
BEESAT 2 02 Feb 01:29:49 01:33:58 87° 127° (SE) 01:38:11 435.950
BEESAT 3 02 Feb 01:39:41 01:43:47 69° 309° (NW) 01:47:58 437.485
AIST 2 02 Feb 01:47:37 01:51:48 58° 122° (ESE) 01:56:03 435.215
PCSat 02 Feb 01:49:57 01:51:53 12° 104° (ESE) 01:54:08 145.827
DANDE 02 Feb 01:52:13 01:57:26 19° 80° (E) 02:03:02 436.750
SWISSCUBE 02 Feb 01:57:26 01:59:54 14° 273° (W) 02:02:08 437.505
CUSAT 1 02 Feb 01:57:52 02:03:52 23° 84° (E) 02:10:00 437.405
ISS 02 Feb 02:04:02 02:07:18 58° 212° (SSW) 02:10:32 145.825
M-CUBED/EXP-1 PRIME 02 Feb 02:06:34 02:10:26 89° 248° (WSW) 02:14:01 437.505
BEESAT 02 Feb 02:14:16 02:15:04 10° 276° (W) 02:15:35 436.000
Oscar 19 02 Feb 02:31:44 02:36:19 33° 295° (WNW) 02:40:49 437.125/150
GONETS M04 02 Feb 02:31:56 02:39:35 31° 297° (WNW) 02:47:02
AUBIESAT-1 02 Feb 02:36:26 02:40:06 44° 255° (WSW) 02:43:31 437.475
Gurwin Techsat 1B 02 Feb 02:38:59 02:44:21 84° 103° (ESE) 02:49:42 435.225
STARS 02 Feb 02:43:21 02:47:14 28° 265° (W) 02:51:06 437.465
ITAMSAT 1 02 Feb 02:56:52 03:01:57 51° 290° (WNW) 03:07:00 435.822/435.867
KKS-1 02 Feb 03:01:10 03:03:39 14° 272° (W) 03:05:57 437.445
HORYU 2 02 Feb 03:02:03 03:06:22 46° 99° (E) 03:10:38 437.375
AO-7 02 Feb 03:05:11 03:12:13 30° 93° (E) 03:19:23 29.400- 29.500
BEESAT 2 02 Feb 03:09:52 03:12:47 18° 327° (NNW) 03:15:39 435.950
RS-15 02 Feb 03:14:39 03:24:21 41° 110° (ESE) 03:34:20 29.354- 29.394
BEESAT 3 02 Feb 03:20:19 03:22:43 15° 330° (NNW) 03:25:05 437.485
AIST 2 02 Feb 03:27:14 03:30:46 24° 322° (NW) 03:34:17 435.215
PCSat 02 Feb 03:29:07 03:34:31 78° 122° (ESE) 03:40:00 145.827
DANDE 02 Feb 03:31:21 03:39:52 75° 98° (E) 03:48:17 436.750
MOZHAYETS 4 02 Feb 03:31:25 03:35:57 64° 73° (ENE) 03:40:31
CUSAT 1 02 Feb 03:37:41 03:46:11 89° 101° (E) 03:54:17 437.405
PRISM 02 Feb 03:53:00 03:54:48 13° 60° (ENE) 03:56:45 437.425
CUBESAT XI-V 02 Feb 04:01:51 04:03:54 13° 59° (ENE) 04:06:10 437.345
JAS-2 02 Feb 04:07:35 04:13:05 43° 98° (E) 04:19:16 435.910
STRAND 1 02 Feb 04:13:48 04:16:37 15° 58° (ENE) 04:19:38 437.568
Gurwin Techsat 1B 02 Feb 04:20:21 04:23:44 17° 302° (WNW) 04:26:57 435.225
YUBILEINY 02 Feb 04:36:50 04:44:17 31° 63° (ENE) 04:51:56 435.215
HORYU 2 02 Feb 04:39:23 04:42:46 21° 297° (WNW) 04:46:04 437.375
AO-7 02 Feb 04:57:27 05:05:44 69° 294° (WNW) 05:13:56 29.400- 29.500
MOZHAYETS 4 02 Feb 05:10:55 05:13:43 15° 272° (W) 05:16:20
PCSat 02 Feb 05:14:12 05:18:36 24° 322° (NW) 05:22:56 145.827
DANDE 02 Feb 05:16:30 05:24:06 32° 297° (WNW) 05:31:17 436.750
CUSAT 1 02 Feb 05:23:21 05:30:13 26° 300° (WNW) 05:36:30 437.405
RS-15 02 Feb 05:25:20 05:36:13 68° 314° (NW) 05:47:18 29.354- 29.394
PRISM 02 Feb 05:25:43 05:29:49 74° 257° (WSW) 05:33:57 437.425
Cubesat XI-IV 02 Feb 05:33:40 05:38:31 33° 95° (E) 05:43:23 437.490
CUBESAT XI-V 02 Feb 05:36:08 05:40:45 87° 256° (WSW) 05:45:25 437.345
STRAND 1 02 Feb 05:50:05 05:55:12 87° 261° (W) 06:00:23 437.568
CUTE-I 02 Feb 05:52:09 05:57:21 47° 99° (E) 06:02:32 437.470
JAS-2 02 Feb 05:53:01 05:58:10 35° 294° (WNW) 06:03:47 435.910
YUBILEINY 02 Feb 06:33:15 06:41:59 70° 266° (W) 06:50:42 435.215
PHONESAT 2.4 02 Feb 06:44:50 06:46:00 11° 153° (SSE) 06:47:16 2401.200-2431.200
AO-7 02 Feb 06:51:34 06:57:13 20° 315° (NW) 07:02:37 29.400- 29.500
VERMONT LUNAR 02 Feb 06:55:54 06:58:16 18° 161° (SSE) 07:00:41 437.305
Cubesat XI-IV 02 Feb 07:13:42 07:18:41 38° 294° (WNW) 07:23:37 437.490
CUBESAT XI-V 02 Feb 07:18:22 07:19:03 10° 276° (W) 07:19:27 437.345
CUTE 1.7 + AOD 2 02 Feb 07:27:52 07:28:45 11° 85° (E) 07:29:53 437.475
CUTE-I 02 Feb 07:32:41 07:37:15 28° 297° (WNW) 07:41:44 437.470
STRAND 1 02 Feb 07:33:13 07:35:18 12° 275° (W) 07:37:05 437.568
GOMX 1 02 Feb 07:33:38 07:37:02 17° 86° (E) 07:40:31 467.674
RS-15 02 Feb 07:41:22 07:51:04 33° 345° (NNW) 08:00:57 29.354- 29.394
SEEDS 02 Feb 07:50:45 07:53:22 16° 89° (E) 07:56:06 437.485
HO-68 02 Feb 07:51:58 07:58:05 30° 93° (E) 08:04:19 435.675
BRITE-PL 02 Feb 07:59:59 08:05:19 41° 95° (E) 08:10:25 437.365/2234.400
BEESAT 2 02 Feb 08:09:33 08:12:52 22° 37° (NE) 08:16:11 435.950
COMPASS 1 02 Feb 08:10:20 08:13:32 22° 92° (E) 08:16:49 437.405
CINEMA 3 02 Feb 08:16:01 08:18:51 16° 86° (E) 08:21:47 145.822/145.860
UNISAT 6 02 Feb 08:18:30 08:21:42 19° 63° (ENE) 08:24:59 437.425
BEESAT 3 02 Feb 08:18:53 08:22:29 27° 40° (NE) 08:26:05 437.485
NANOSAT C BR1 02 Feb 08:19:12 08:20:00 11° 58° (ENE) 08:21:02 145.865
PHONESAT 2.4 02 Feb 08:20:50 08:23:53 26° 169° (S) 08:26:57 2401.200-2431.200
AIST 2 02 Feb 08:29:06 08:32:06 18° 33° (NNE) 08:35:09 435.215
BUGSAT 1 02 Feb 08:31:46 08:32:35 11° 58° (ENE) 08:33:35 437.445
YUBILEINY 02 Feb 08:32:41 08:37:19 15° 286° (WNW) 08:41:25 435.215
VERMONT LUNAR 02 Feb 08:32:45 08:35:49 29° 177° (S) 08:38:53 437.305
AAUSAT CUBESAT 2 02 Feb 08:32:46 08:36:31 32° 96° (E) 08:40:16 437.432
QB50P2 02 Feb 08:34:23 08:36:50 15° 61° (ENE) 08:39:25 145.880/145.840
CANX-2 02 Feb 08:37:38 08:41:51 64° 101° (E) 08:46:02 2200.000
SO-50 02 Feb 08:40:21 08:44:27 33° 117° (ESE) 08:48:43 436.795
QB50P1 02 Feb 08:41:40 08:44:28 18° 63° (ENE) 08:47:24 145.935-145.965
ZACube-1 02 Feb 08:46:16 08:47:54 12° 85° (E) 08:49:44 437.345
DX 1 02 Feb 08:48:07 08:50:28 14° 89° (E) 08:52:59 434.975-435.025
ANTELSAT 02 Feb 08:53:31 08:57:50 38° 69° (ENE) 09:02:09 437.575/2403.000
FUNcube-1 02 Feb 08:55:57 08:58:27 15° 88° (E) 09:01:04 145.935
CUBEBUG 2 02 Feb 08:57:12 09:00:46 23° 91° (E) 09:04:18 437.445
TIGRISAT 02 Feb 08:58:27 09:02:50 41° 70° (ENE) 09:07:13 435.000
POLYITAN 1 02 Feb 08:58:42 09:02:14 25° 66° (ENE) 09:05:51 437.675
CUTE 1.7 + AOD 2 02 Feb 09:01:07 09:05:22 79° 285° (WNW) 09:09:34 437.475
DOVE 4 02 Feb 09:01:17 09:06:30 74° 102° (ESE) 09:11:23 437.250
GOMX 1 02 Feb 09:10:25 09:15:51 71° 285° (WNW) 09:20:56 467.674
AIST 1 02 Feb 09:15:07 09:15:59 11° 83° (E) 09:17:05
DUCHIFAT 1 02 Feb 09:15:42 09:19:35 35° 69° (ENE) 09:23:32 145.980
POPSAT HIP 1 02 Feb 09:15:47 09:19:42 36° 69° (ENE) 09:23:41 437.405
Oscar 11 02 Feb 09:18:37 09:22:49 50° 99° (E) 09:27:01 145.826/435.025
SEEDS 02 Feb 09:25:29 09:29:34 50° 288° (WNW) 09:33:37 437.485
UWE-3 02 Feb 09:27:11 09:31:22 38° 96° (E) 09:35:25 435.000/436.395/437.385
AISAT 02 Feb 09:33:48 09:36:48 18° 90° (E) 09:39:55 437.250
DELFI C3 02 Feb 09:37:09 09:41:12 65° 102° (ESE) 09:45:12 145.870
BRITE-PL 02 Feb 09:38:39 09:43:43 33° 294° (WNW) 09:48:30 437.365/2234.400
HO-68 02 Feb 09:39:14 09:46:17 60° 293° (WNW) 09:53:16 435.675
COMPASS 1 02 Feb 09:45:33 09:49:26 37° 290° (WNW) 09:53:15 437.405
BEESAT 2 02 Feb 09:47:17 09:51:27 61° 237° (WSW) 09:55:31 435.950
HUMSAT D 02 Feb 09:47:56 09:51:36 28° 94° (E) 09:55:15 437.325/437.525
NANOSAT C BR1 02 Feb 09:50:56 09:55:13 82° 75° (ENE) 09:59:33 145.865
CINEMA 3 02 Feb 09:51:51 09:56:39 64° 287° (WNW) 10:01:12 145.822/145.860
ESTCUBE 1 02 Feb 09:52:06 09:53:57 13° 86° (E) 09:56:01 437.505/2401.250
UNISAT 6 02 Feb 09:53:27 09:58:07 60° 260° (W) 10:02:45 437.425
CUBEBUG 1 02 Feb 09:54:57 09:56:40 12° 86° (E) 09:58:35 437.445
UKube-1 02 Feb 09:56:26 10:00:49 67° 102° (ESE) 10:05:09 .
BEESAT 3 02 Feb 09:56:49 10:00:48 43° 240° (WSW) 10:04:41 437.485
RS-15 02 Feb 09:57:30 10:07:24 35° 19° (NNE) 10:17:45 29.354- 29.394
PHONESAT 2.4 02 Feb 09:58:47 10:01:57 29° 186° (S) 10:05:08 2401.200-2431.200
VELOX 1 02 Feb 09:58:56 10:02:53 30° 95° (E) 10:06:52 145.980
BUGSAT 1 02 Feb 10:03:17 10:07:25 86° 81° (E) 10:11:40 437.445
AIST 2 02 Feb 10:07:01 10:11:21 88° 235° (SW) 10:15:35 435.215
QB50P2 02 Feb 10:08:01 10:12:18 66° 258° (WSW) 10:16:37 145.880/145.840
AAUSAT CUBESAT 2 02 Feb 10:08:37 10:12:06 25° 293° (WNW) 10:15:30 437.432
VERMONT LUNAR 02 Feb 10:10:37 10:13:24 22° 194° (SSW) 10:16:11 437.305
CANX-2 02 Feb 10:14:54 10:17:22 15° 298° (WNW) 10:19:40 2200.000
QB50P1 02 Feb 10:15:48 10:20:00 55° 260° (W) 10:24:16 145.935-145.965
50 SAT 02 Feb 10:16:55 10:20:47 42° 98° (E) 10:24:36 437.505
ZACube-1 02 Feb 10:20:31 10:24:57 74° 285° (WNW) 10:29:13 437.345
SO-50 02 Feb 10:20:34 10:24:57 39° 317° (NW) 10:29:28 436.795
DX 1 02 Feb 10:22:51 10:27:14 64° 288° (WNW) 10:31:34 434.975-435.025
ANTELSAT 02 Feb 10:30:42 10:34:44 27° 266° (W) 10:38:41 437.575/2403.000
FUNcube-1 02 Feb 10:30:57 10:35:18 59° 287° (WNW) 10:39:31 145.935
PCSat 02 Feb 10:31:23 10:35:49 25° 39° (NE) 10:40:18 145.827
CUBEBUG 2 02 Feb 10:33:24 10:37:41 40° 291° (WNW) 10:41:48 437.445
POLYITAN 1 02 Feb 10:34:04 10:38:04 35° 264° (W) 10:42:04 437.675
TIGRISAT 02 Feb 10:35:50 10:39:45 25° 267° (W) 10:43:35 435.000
Oscar 19 02 Feb 10:36:31 10:38:22 12° 55° (NE) 10:40:28 437.125/150
GONETS M04 02 Feb 10:40:04 10:48:02 39° 67° (ENE) 10:56:05
DOVE 4 02 Feb 10:40:12 10:43:40 18° 300° (WNW) 10:46:53 437.250
AIST 1 02 Feb 10:48:49 10:53:04 76° 280° (W) 10:57:23
GOMX 1 02 Feb 10:50:39 10:53:02 13° 305° (NW) 10:55:09 467.674
DUCHIFAT 1 02 Feb 10:51:59 10:55:33 24° 267° (W) 10:59:04 145.980
POPSAT HIP 1 02 Feb 10:52:09 10:55:43 24° 267° (W) 10:59:14 437.405
Oscar 11 02 Feb 10:55:37 10:58:42 19° 296° (WNW) 11:01:40 145.826/435.025
SPROUT 02 Feb 10:57:32 10:59:46 14° 88° (E) 11:02:10 437.525
